Theta_e
318 318 321 322 323 325 327 328 329 329 325 325 328 326 323 323 320 319 324 320 318 320 316 317 315 316 319 320 321 323 325 327 330 325 328 331 320 321 324 320 320 320 326 333 336 338 337 338 339 339 340 340 340 340 340 340 340 339 338 337 336 337 338 339 339 339 339 340 340 339 340 339 339 339 339 339 339 338 338 338 338 338 339 339 340 340 340 339 338 338 337 337 336 335 333 333 333
319 322 324 324 324 323 328 329 330 331 328 325 324 327 324 320 320 323 329 324 323 316 314 319 316 317 321 320 319 319 322 323 324 326 326 322 321 324 322 321 320 321 327 333 336 337 337 339 339 340 340 340 340 340 341 340 340 339 338 338 338 338 339 339 339 340 340 340 340 340 339 340 340 340 339 338 338 337 336 337 337 337 338 338 339 339 338 337 337 337 335 335 335 333 332 331 332
321 325 326 325 324 324 332 329 326 329 324 320 320 324 321 320 324 326 327 323 320 312 313 318 316 319 321 320 319 319 323 324 322 325 326 319 325 326 322 323 319 322 328 333 337 336 338 339 339 339 339 340 340 340 340 340 339 339 338 338 338 339 339 339 339 340 340 340 340 340 339 339 339 339 338 337 336 335 334 335 336 335 336 337 337 337 337 336 336 336 335 335 335 332 330 330 330
323 325 324 325 325 330 342 333 331 329 319 321 320 322 326 326 328 327 325 320 316 312 315 317 318 318 317 320 320 319 322 324 319 324 329 320 325 326 322 323 319 323 328 333 336 336 338 338 339 339 339 340 339 340 339 339 339 338 338 338 338 338 338 339 339 339 339 340 339 339 339 338 338 337 336 335 334 333 333 333 334 333 334 334 334 335 334 334 334 335 334 334 332 329 328 327 326
324 324 321 325 328 330 336 329 331 327 318 326 321 322 333 331 329 327 323 320 316 316 317 317 320 317 314 320 320 321 324 323 317 316 322 319 323 324 323 324 321 323 327 333 336 336 338 337 339 338 339 339 339 340 338 339 338 338 338 337 337 337 338 338 339 339 339 339 338 338 337 336 335 335 334 332 332 332 331 330 331 331 331 332 332 331 332 332 333 332 332 330 327 325 324 322 320
325 322 319 321 321 323 327 324 327 326 321 325 322 324 329 328 326 322 321 321 319 317 316 316 319 316 316 319 317 321 322 320 318 316 317 318 322 323 325 324 321 323 327 332 336 337 337 337 338 338 338 338 338 339 338 338 337 337 337 337 337 337 337 337 337 338 337 337 336 336 335 334 333 332 331 330 330 330 329 328 330 330 329 329 329 329 329 329 328 327 326 324 321 320 318 316 314
323 322 324 322 320 322 329 329 329 330 324 320 322 325 321 322 322 319 320 319 318 317 314 315 315 315 319 317 315 317 316 317 318 319 318 317 321 323 325 324 322 323 327 331 335 336 337 337 337 337 337 337 337 337 337 336 336 335 335 336 336 336 336 336 336 336 336 336 335 334 333 332 331 329 328 327 327 328 328 327 328 328 327 327 327 326 324 323 321 320 318 316 314 312 310 309 308
321 324 326 329 329 326 330 330 329 330 325 318 320 324 322 321 319 317 320 318 317 318 314 316 315 316 318 313 317 318 312 316 317 317 318 317 320 324 325 325 323 323 327 330 334 336 336 337 336 337 336 335 335 335 335 333 334 333 333 333 333 334 334 334 334 334 333 333 332 331 330 329 329 327 326 325 325 326 326 326 326 326 325 325 324 322 319 317 314 312 310 307 306 305 304 303 302
319 321 324 328 327 325 330 328 323 323 324 322 321 323 322 319 319 318 320 319 317 318 316 317 315 316 317 313 319 318 312 315 316 317 318 317 319 323 325 325 324 324 327 329 332 334 334 336 335 336 334 333 333 333 332 331 332 331 331 331 331 332 332 331 331 331 330 329 329 328 328 328 328 325 325 324 323 323 324 324 324 323 322 321 319 317 314 312 309 306 305 302 302 301 300 300 299
319 320 323 327 325 323 325 323 321 322 324 323 320 319 318 315 317 318 319 318 316 318 316 313 312 315 316 315 318 317 315 315 315 317 317 316 318 323 326 325 326 325 327 329 331 332 332 333 332 334 333 332 332 331 331 330 330 329 330 330 330 330 329 329 328 329 328 328 328 327 327 326 326 324 324 323 322 321 320 320 318 317 316 315 313 310 309 308 306 303 302 300 300 299 299 299 298
324 326 327 327 326 322 320 323 324 324 321 319 320 319 316 314 314 317 318 317 317 317 314 312 314 316 315 316 321 316 313 314 315 317 316 316 317 322 326 325 327 326 327 329 330 331 331 331 330 331 331 331 331 331 331 330 329 329 329 329 329 329 328 328 327 327 327 327 326 326 326 325 324 323 322 321 320 317 313 311 309 309 308 307 306 305 306 305 304 301 299 299 298 298 298 298 298
324 330 337 333 326 324 322 325 325 324 322 320 325 321 314 314 316 319 321 319 318 318 315 314 316 317 316 321 325 315 311 313 314 316 316 316 317 322 325 325 327 327 328 328 329 330 330 330 330 331 330 329 329 329 329 328 328 327 328 328 328 327 327 327 326 326 325 325 325 325 324 324 323 321 320 318 315 311 306 305 303 303 303 303 303 302 303 302 301 300 298 298 298 298 298 298 298
331 331 335 326 322 326 323 326 328 326 327 327 325 317 310 316 321 322 322 321 318 318 317 314 315 315 317 323 323 317 314 313 313 316 316 315 317 321 324 325 326 328 328 328 329 329 330 330 329 330 328 326 326 327 328 327 326 326 327 327 327 326 326 326 325 325 325 324 324 324 323 322 320 318 317 314 310 306 304 303 302 303 303 302 301 300 300 299 299 298 298 298 298 298 298 298 297
333 332 329 320 319 326 325 325 329 324 325 328 324 315 312 318 322 321 319 321 320 319 315 310 312 315 318 319 323 327 318 311 314 316 315 315 317 321 324 324 325 326 326 327 327 327 327 327 327 326 325 324 324 326 327 326 325 326 326 326 326 325 325 325 324 324 324 323 323 322 321 320 317 315 313 310 306 304 303 302 301 302 302 300 299 299 298 298 298 298 298 298 298 298 297 297 297
324 331 332 327 323 324 324 323 323 320 320 324 320 314 315 317 318 319 316 319 321 315 310 308 310 315 318 318 324 327 314 310 314 315 315 316 318 321 323 323 323 323 323 324 323 324 324 323 324 323 322 322 324 325 326 325 325 325 325 325 325 325 324 324 323 323 323 322 321 320 318 316 314 312 310 307 304 303 303 302 302 301 300 299 298 298 297 297 297 297 297 297 297 297 297 297 297
321 332 331 327 325 322 323 323 319 318 322 325 317 312 318 316 312 316 315 315 317 312 311 313 311 313 319 320 319 316 309 311 313 314 315 316 319 321 322 322 323 322 322 321 321 320 320 320 320 321 321 321 323 324 324 324 325 325 324 325 324 324 324 323 322 322 321 321 319 317 314 312 310 309 307 306 304 303 302 302 302 301 299 299 298 297 297 297 297 297 297 297 297 296 297 297 297
320 331 328 324 326 322 324 323 319 320 327 329 320 313 316 316 313 312 310 310 314 315 316 317 312 311 317 318 313 309 309 312 312 314 315 316 319 320 321 323 322 322 322 321 321 320 319 318 318 319 320 321 322 323 323 324 325 324 324 324 324 324 323 322 321 320 319 318 315 313 310 308 307 306 305 304 302 302 302 302 302 301 299 298 297 297 297 297 297 297 296 296 296 296 296 296 296
323 329 325 322 326 324 325 325 321 319 321 324 321 315 314 317 316 312 310 312 314 315 316 316 313 312 312 311 309 310 311 311 312 314 314 315 317 318 319 321 322 322 322 322 321 321 320 319 318 318 319 320 321 320 321 323 324 323 322 322 323 322 320 320 319 318 316 314 311 309 307 305 304 303 303 302 301 301 301 302 302 300 298 297 297 297 297 297 297 296 296 296 296 296 296 296 296
329 328 321 326 331 325 322 323 322 318 317 321 321 315 312 315 314 311 313 317 317 316 316 316 315 314 312 309 308 309 309 310 312 313 313 314 315 317 317 318 320 320 322 322 322 322 321 320 319 319 319 319 320 319 319 322 323 322 320 320 321 320 318 317 317 315 313 310 307 306 304 303 302 301 301 301 300 300 301 301 301 299 297 297 297 297 297 297 297 297 296 296 296 296 296 296 296
328 324 321 331 330 323 320 321 321 317 316 318 319 316 313 314 313 311 314 316 317 316 316 316 316 317 315 313 309 307 308 309 310 311 312 312 314 315 317 317 318 320 321 322 322 322 322 321 321 320 319 319 320 319 318 320 322 322 319 318 318 318 316 315 314 311 309 307 305 303 302 301 300 300 300 300 300 300 301 301 300 298 297 297 297 297 297 297 297 297 296 296 296 296 295 295 295
322 320 326 333 325 321 321 322 321 316 314 314 317 317 315 314 311 312 314 315 316 316 315 315 316 316 316 317 312 304 305 307 307 310 310 311 312 313 315 317 318 319 320 320 321 321 321 322 321 321 320 319 319 319 318 318 320 322 319 317 317 316 314 312 310 308 306 305 303 302 301 300 299 299 299 299 299 299 299 299 298 297 297 297 297 297 297 297 297 297 296 296 296 295 295 295 295
320 320 326 330 322 318 321 323 320 315 314 315 317 316 315 313 311 313 313 314 316 316 316 315 315 315 315 314 313 305 305 307 306 307 309 310 311 312 313 315 316 317 317 318 320 320 321 321 321 321 320 320 319 318 318 317 318 320 319 317 316 314 311 309 307 305 303 302 301 300 299 299 298 298 297 297 298 297 297 297 297 296 296 297 297 297 297 297 297 297 296 296 296 295 295 295 295
319 322 323 325 321 319 321 323 321 317 316 318 317 315 314 313 314 315 313 314 315 315 316 316 314 312 310 310 313 316 316 313 308 306 308 310 310 311 312 313 315 315 316 317 318 319 320 321 321 321 320 320 319 319 318 317 317 318 317 315 314 311 309 306 304 302 301 299 299 299 298 298 297 297 296 296 296 296 297 296 296 296 296 297 297 297 298 298 297 297 296 296 295 295 295 294 294
318 322 322 322 320 319 320 319 321 320 318 318 316 314 315 315 315 314 312 313 314 314 314 314 311 307 306 310 315 320 319 313 308 306 308 310 311 312 313 313 314 314 314 315 316 317 318 320 321 320 320 320 319 319 319 318 316 316 316 315 312 309 306 304 302 300 299 298 298 297 297 297 296 296 296 296 296 296 296 296 296 296 296 296 297 298 298 298 297 296 296 295 295 294 294 294 294
319 321 322 322 320 321 320 316 318 320 318 315 313 315 316 314 313 312 312 313 313 314 313 312 311 308 309 311 313 313 314 311 306 306 307 308 310 311 311 312 312 311 312 314 315 315 317 318 319 320 320 319 319 318 318 318 316 315 315 314 312 308 305 303 301 300 299 298 297 297 296 296 296 296 296 296 296 296 296 296 296 296 296 296 297 297 297 297 297 296 295 295 295 294 294 294 294
321 320 321 322 320 320 318 316 317 318 317 314 313 316 315 312 312 312 313 312 312 312 311 310 310 311 311 310 310 309 311 311 307 306 306 307 308 308 309 310 310 311 312 313 313 314 315 316 317 319 319 319 318 318 318 317 316 315 314 312 311 308 305 303 301 299 298 298 297 296 296 296 296 296 296 296 296 296 295 295 295 295 296 296 297 297 296 296 297 296 295 295 294 294 294 293 293
320 319 319 320 317 315 314 315 315 314 315 313 312 314 313 311 311 312 314 315 314 312 313 311 310 312 310 309 309 307 307 308 307 306 306 306 306 306 308 308 309 311 311 310 312 313 313 314 315 317 318 318 318 317 317 316 316 315 312 311 311 308 305 303 302 299 298 298 297 296 296 296 296 296 296 296 296 295 295 295 295 295 296 296 296 296 296 295 295 295 295 294 294 293 293 293 293
315 315 316 317 316 313 312 313 313 311 311 312 311 311 312 311 311 312 312 315 315 314 315 313 312 313 311 310 309 307 306 305 304 305 307 306 306 307 307 308 310 310 310 311 312 311 311 313 313 314 316 317 317 317 316 316 315 313 312 311 310 308 306 304 302 299 298 297 297 296 296 296 296 296 296 296 296 295 295 295 295 295 295 296 296 295 295 295 294 294 294 293 293 293 293 293 293
312 312 313 316 315 313 311 312 313 311 311 313 311 310 313 312 313 314 311 312 314 313 315 314 312 312 310 309 308 307 306 304 303 304 306 307 307 308 307 309 310 310 311 311 310 309 310 312 312 313 314 315 316 316 316 315 314 313 311 310 309 308 306 304 301 299 298 297 297 296 296 296 296 296 296 295 295 295 295 295 295 295 295 296 295 295 294 294 294 294 293 293 293 293 293 293 292
312 313 313 314 313 313 312 312 312 310 311 313 311 311 317 316 314 314 311 311 313 313 314 313 312 310 308 308 308 308 306 304 304 304 305 307 308 307 308 309 310 310 310 309 308 309 310 310 311 312 312 313 314 315 315 315 315 313 312 310 310 309 306 304 301 299 298 297 297 296 296 296 296 296 295 295 295 295 295 295 295 295 295 295 295 295 294 294 294 294 293 293 293 292 292 292 292
314 311 312 313 313 316 316 312 310 309 311 312 310 311 315 314 314 313 311 312 312 312 312 312 311 309 308 308 308 309 307 305 303 304 305 306 307 307 308 309 308 309 309 308 309 310 309 309 309 310 311 312 313 314 315 314 315 314 313 312 310 309 307 304 302 299 298 297 296 296 296 295 295 295 295 295 295 295 295 294 295 295 295 295 295 295 294 294 294 293 293 293 293 292 292 292 292
322 312 314 317 313 317 317 312 311 311 311 309 310 313 312 311 313 311 310 310 309 310 311 312 311 310 309 309 309 309 308 305 303 303 304 305 306 307 307 308 308 308 308 308 309 309 308 308 308 309 309 310 311 312 313 314 314 313 313 312 311 310 308 305 303 300 298 297 296 296 295 295 295 295 295 295 294 294 294 294 295 295 295 295 295 295 294 294 293 293 293 293 293 292 291 291 292
324 313 314 318 314 315 314 313 315 312 310 309 309 312 312 312 314 312 310 309 308 309 310 310 310 309 309 308 308 309 309 308 306 305 305 305 305 306 307 307 307 308 308 308 308 307 308 307 307 307 308 309 310 311 311 312 312 312 312 311 311 309 308 306 304 302 299 297 297 296 295 295 295 295 295 295 294 294 294 295 295 295 295 295 295 294 293 293 293 293 292 292 292 292 292 291 291
319 314 314 316 314 313 312 314 316 311 310 311 310 309 310 311 312 312 311 310 309 309 309 308 308 308 308 308 308 308 308 308 308 308 307 306 306 307 307 307 307 307 307 308 308 307 308 307 306 306 306 307 308 309 309 310 310 310 310 309 309 308 308 307 305 303 300 298 297 296 295 295 295 295 295 295 294 294 294 294 294 295 295 295 294 293 293 292 292 292 292 292 292 292 292 291 292
316 316 316 315 313 312 313 313 313 313 311 311 311 309 308 309 308 309 309 309 309 309 308 308 308 308 308 308 308 308 308 308 308 308 308 307 307 308 307 307 307 307 307 307 307 307 307 306 306 305 305 305 306 306 307 308 307 307 307 307 306 306 306 305 304 303 301 299 297 296 296 295 295 295 295 294 294 294 294 294 294 294 294 294 293 293 292 291 291 291 291 292 291 291 291 291 292
314 314 314 314 312 312 312 311 311 312 309 309 310 309 309 309 308 309 308 308 308 308 308 308 308 309 309 309 309 308 308 308 308 307 308 308 308 308 308 308 308 307 307 307 307 306 306 306 305 305 304 304 304 304 304 305 305 305 304 304 304 304 304 304 304 303 301 299 297 296 296 295 295 295 295 294 294 294 294 294 294 294 294 294 293 293 292 292 292 291 291 291 291 291 290 290 291
311 312 313 313 312 311 310 310 310 309 308 310 310 310 310 309 309 309 308 308 309 308 308 308 309 309 309 310 310 309 309 309 309 307 307 307 308 308 308 308 308 307 306 305 306 306 306 305 305 304 304 303 303 303 303 303 304 303 302 302 304 304 303 302 302 302 301 300 298 296 296 295 295 295 294 294 294 293 293 293 293 293 294 293 293 293 293 292 292 291 291 290 291 291 290 290 290
312 313 313 312 311 311 310 310 310 308 308 310 311 310 309 309 309 309 309 309 309 309 309 309 309 309 310 310 310 310 310 311 311 309 307 306 308 308 307 308 307 306 306 306 306 306 306 305 305 305 304 303 302 302 302 303 303 303 303 303 303 303 301 301 301 301 300 299 297 296 295 295 295 295 295 294 293 293 293 293 293 293 293 293 293 293 292 292 291 291 290 290 290 291 291 290 290
313 313 312 312 312 311 311 311 312 310 309 312 313 310 309 309 309 309 310 309 309 310 310 310 310 310 310 310 310 311 311 312 311 309 307 306 307 308 307 307 307 307 307 306 306 306 305 305 305 304 303 303 302 302 302 302 303 302 302 302 301 300 299 300 300 299 299 297 296 295 295 295 295 295 295 294 293 293 293 293 293 293 293 293 293 292 291 291 291 290 290 290 290 290 290 290 291
314 313 312 313 312 312 312 313 316 313 309 311 311 309 310 310 309 310 309 309 309 309 309 310 310 310 310 310 311 310 311 311 310 309 309 307 306 306 307 306 306 307 306 305 305 305 304 305 305 304 303 303 302 302 302 302 302 301 301 300 299 298 298 297 297 297 296 296 295 295 295 294 295 294 294 294 294 294 293 293 293 293 293 293 293 292 292 291 291 291 290 290 291 290 290 290 291
314 314 312 313 312 312 311 312 315 312 311 313 311 311 314 314 314 315 313 312 311 309 310 311 311 309 309 310 311 310 310 311 310 310 312 312 309 305 306 306 306 305 305 305 305 305 305 305 305 304 303 303 302 302 301 301 301 300 299 299 298 297 297 296 295 295 295 294 294 294 294 294 294 294 294 294 294 294 294 293 293 294 293 293 292 292 292 292 291 291 290 290 291 292 292 290 290
312 315 314 312 312 312 312 313 311 312 316 315 312 314 317 317 318 321 321 320 316 314 315 317 315 311 311 313 313 311 310 312 313 313 315 317 310 303 305 306 305 305 306 306 305 305 305 304 304 304 303 302 302 301 301 300 300 300 299 298 297 296 296 295 295 295 294 294 295 294 294 294 294 294 294 294 294 294 294 293 293 293 293 292 292 292 292 291 291 291 291 290 290 292 293 291 290
313 318 318 314 312 313 314 313 312 315 318 313 313 317 316 315 317 320 321 320 319 318 318 317 313 311 313 315 313 311 311 313 317 318 318 318 312 306 306 305 305 306 306 306 305 304 304 304 304 303 303 302 302 301 300 300 300 299 299 298 298 297 296 296 296 296 295 295 295 294 294 294 294 294 294 294 294 294 294 294 293 293 293 292 292 291 291 291 291 291 291 291 291 291 292 292 292
316 317 319 318 316 315 314 312 312 315 315 312 314 317 315 315 315 317 317 315 318 318 316 314 311 312 314 313 312 312 313 314 318 318 318 319 312 305 305 305 306 307 307 307 305 304 304 304 303 303 303 302 302 301 300 300 300 299 299 298 298 298 298 298 297 296 296 295 294 294 293 293 293 293 293 294 294 294 294 294 293 293 292 292 292 291 291 291 291 291 291 290 290 290 292 293 293
317 313 314 316 315 315 313 313 314 314 314 314 314 314 316 318 315 316 314 314 319 318 316 315 314 314 313 311 311 311 314 316 316 314 315 314 307 302 303 305 307 308 308 308 306 305 304 303 303 303 303 302 301 301 300 300 300 299 299 298 298 298 298 298 297 297 296 295 294 293 293 292 292 292 293 293 293 294 294 293 293 293 292 292 291 291 291 291 291 291 291 290 290 290 291 292 293
314 310 312 315 315 315 313 314 316 317 318 316 314 315 318 319 317 317 314 315 321 321 318 317 316 316 315 314 312 311 315 316 314 313 313 309 303 302 304 306 307 308 307 308 307 306 304 303 303 302 302 302 301 301 300 300 299 299 299 298 298 298 298 297 297 297 296 295 294 293 293 292 292 292 292 292 293 293 293 293 293 293 293 292 292 291 291 290 290 291 291 291 291 291 291 291 292
311 312 316 318 317 315 315 316 316 318 320 317 317 317 316 319 320 319 318 318 321 322 321 320 320 319 320 319 314 312 315 313 313 316 314 308 303 303 305 307 308 308 307 307 306 305 304 303 303 303 302 302 301 301 300 300 299 299 299 298 298 298 298 297 297 296 296 295 294 293 293 292 292 292 292 292 292 292 293 293 293 293 293 292 292 291 291 291 291 291 291 291 290 291 291 291 291
311 316 317 317 317 316 318 319 317 318 321 319 317 315 315 318 318 316 318 319 317 317 318 320 323 322 322 321 314 311 312 311 313 318 318 315 311 308 306 306 307 307 306 306 305 304 304 303 303 303 302 302 301 301 300 300 299 299 299 298 298 298 298 297 297 296 296 295 295 294 293 293 292 292 292 291 292 292 292 292 292 293 293 292 292 291 291 290 290 290 290 290 290 290 290 290 290
311 315 315 314 317 318 318 320 318 318 320 316 313 313 313 316 316 315 315 315 314 313 313 316 321 320 319 319 312 309 312 312 313 317 318 319 319 314 304 303 305 306 305 305 304 303 303 303 302 302 302 302 301 300 300 300 299 299 298 298 298 298 297 297 297 296 296 296 295 294 293 293 292 292 292 292 292 292 292 292 292 292 292 292 292 291 290 290 290 289 290 290 290 290 290 290 290
310 313 315 316 318 319 320 321 319 318 320 315 310 313 315 315 317 318 315 313 316 316 314 315 315 314 316 314 308 310 316 314 313 316 317 317 317 310 301 300 303 303 303 303 303 303 302 302 302 302 302 301 301 300 300 299 299 299 298 298 298 297 297 297 297 297 296 296 295 294 294 293 293 293 293 293 293 292 292 292 292 292 292 292 292 291 290 290 289 289 289 289 289 290 290 290 290
309 313 318 317 319 322 322 323 323 321 322 316 309 314 319 318 318 317 315 316 318 317 314 312 313 314 316 311 307 314 318 312 311 311 311 311 308 302 299 300 302 301 301 301 301 302 301 301 301 301 301 301 300 300 299 299 299 298 298 298 297 297 297 297 297 297 296 295 295 294 294 294 293 293 293 293 293 292 292 292 292 292 292 292 292 291 290 289 289 289 289 289 289 289 289 289 289
312 315 317 315 318 322 319 321 323 320 320 317 313 317 318 316 316 314 314 315 314 314 313 313 315 316 315 312 311 314 312 307 307 306 304 304 301 298 299 300 300 300 299 299 299 299 299 300 300 300 300 300 299 299 299 299 298 298 298 297 297 297 297 297 296 296 296 295 295 295 294 294 294 294 293 293 292 292 292 292 292 292 292 291 291 290 290 289 289 289 289 289 289 289 289 289 289
314 313 316 315 317 319 317 319 320 318 318 319 318 319 317 316 317 314 318 320 316 316 316 313 314 317 317 314 310 308 306 303 302 301 300 300 298 297 298 298 298 298 297 297 297 297 297 298 298 298 299 299 299 298 298 298 298 297 297 297 297 297 296 297 296 296 296 295 295 295 295 294 294 293 293 293 292 292 291 291 291 291 291 291 290 290 289 289 289 288 289 289 289 289 289 289 289
314 317 316 314 314 315 316 318 320 319 319 320 319 320 318 319 319 316 318 322 317 316 318 317 316 317 316 311 306 304 302 300 299 297 297 297 296 296 295 296 296 296 296 296 296 296 296 296 296 296 297 297 298 298 297 297 297 297 297 297 296 296 296 296 296 296 296 295 295 295 295 294 294 293 293 293 292 292 291 291 290 290 290 290 289 289 289 288 288 288 288 288 288 288 288 288 288
312 316 314 313 316 316 316 319 319 319 320 320 321 321 318 318 319 317 316 318 316 316 318 317 313 310 307 303 302 300 298 296 296 295 294 294 294 294 294 294 294 294 295 295 295 295 295 295 295 295 295 296 296 296 297 297 296 296 297 296 296 296 296 296 296 296 295 295 295 295 295 294 294 294 293 293 292 292 292 291 291 290 289 289 289 288 288 288 287 287 287 287 287 288 288 288 288
309 311 311 313 314 314 316 317 318 320 319 320 322 321 320 319 318 316 316 316 315 314 313 311 306 303 301 300 299 297 295 295 294 293 293 293 293 293 293 293 293 293 294 294 294 294 294 294 294 294 295 295 295 295 295 296 296 296 296 296 296 296 295 295 295 295 295 295 295 295 295 294 294 294 293 293 292 292 292 291 291 291 290 289 288 288 288 287 287 287 287 287 287 287 287 287 287
312 312 313 313 312 315 317 316 317 318 318 319 321 320 322 325 321 317 317 313 309 309 308 305 300 298 297 296 295 294 294 293 292 292 292 292 292 292 292 292 292 292 293 293 293 293 293 293 293 294 294 294 295 295 294 295 295 296 296 296 296 296 295 295 295 295 295 295 295 295 294 294 294 293 293 293 292 292 292 291 291 291 290 289 289 288 287 287 287 286 286 286 286 286 286 286 286
316 315 315 315 315 317 318 318 318 318 317 319 320 319 322 327 323 317 314 307 301 301 302 300 297 296 295 294 294 293 293 292 292 292 291 291 291 291 291 291 291 291 292 292 292 292 292 292 292 293 293 294 294 294 294 294 294 295 295 295 296 296 295 295 295 295 295 295 295 294 294 294 294 293 293 292 292 292 292 291 291 291 290 289 288 288 288 287 286 286 286 286 286 285 285 285 285
Wind_Speed
2 2 2 2 2 2 2 4 1 2 2 1 2 0 3 2 1 2 4 3 2 2 2 1 4 4 2 2 5 4 3 6 5 3 1 4 3 10 25 19 16 28 32 31 28 26 24 23 21 20 19 18 18 17 16 16 16 15 14 13 12 12 11 11 10 10 10 10 10 10 10 10 10 10 10 9 8 8 8 8 8 8 8 8 8 8 7 6 5 4 3 2 2 0 2 3 4
2 1 1 1 3 1 1 3 1 2 3 2 2 2 3 2 1 4 5 4 3 2 0 1 3 2 0 0 1 1 4 5 4 2 3 4 3 12 27 20 18 30 33 32 29 27 25 24 21 20 19 18 18 17 16 17 16 15 14 14 13 13 12 12 11 11 11 11 11 11 11 11 11 10 10 9 8 7 7 8 8 8 8 8 8 7 6 5 4 4 1 2 2 2 3 4 3
1 1 1 0 3 3 1 3 1 0 2 3 3 3 1 1 4 6 6 7 5 1 2 1 1 3 1 2 1 2 4 3 3 3 3 5 3 11 29 21 20 31 34 33 30 28 26 25 22 20 20 19 19 17 17 16 16 15 15 15 14 13 13 13 12 12 12 12 12 12 11 11 10 9 9 8 7 6 6 7 8 7 7 7 6 6 5 4 4 5 4 3 4 3 4 4 5
1 2 2 1 1 3 3 3 1 2 1 2 3 4 2 4 6 5 6 6 4 1 1 2 2 2 4 5 3 1 5 3 4 6 2 5 5 11 29 22 21 33 33 32 31 29 27 26 24 22 20 19 19 17 17 16 15 15 15 15 15 14 13 13 13 13 13 13 12 11 11 9 9 8 7 7 6 5 5 6 6 5 4 4 4 4 4 4 5 6 7 6 6 6 6 6 6
2 4 3 1 2 1 3 2 2 2 3 3 1 4 4 6 5 4 5 6 4 2 2 2 1 1 2 4 2 1 4 3 3 8 3 3 6 13 30 23 24 35 34 33 31 29 29 28 26 24 21 19 19 17 17 16 15 15 14 14 14 14 13 13 13 13 13 12 11 10 10 8 8 8 6 7 6 5 5 7 6 5 6 5 4 4 3 5 7 7 8 8 7 7 6 6 6
1 4 6 5 3 1 3 1 2 2 4 4 2 5 5 5 5 4 6 6 2 4 3 1 1 1 1 3 3 4 4 0 0 8 6 3 6 16 30 24 26 36 34 33 31 30 29 29 28 26 22 20 20 18 17 16 14 14 14 14 14 14 13 13 12 11 12 11 10 10 9 8 8 8 6 7 7 5 6 7 8 7 7 6 5 4 3 7 7 7 7 6 6 5 5 5 6
1 1 4 5 2 2 2 2 3 3 4 5 3 6 6 2 4 3 5 4 1 2 1 1 1 1 3 2 2 6 6 5 1 4 6 5 6 17 29 25 28 36 34 33 31 30 29 29 29 27 23 21 20 19 18 17 16 16 16 15 14 14 13 13 12 12 12 11 11 10 10 9 9 9 9 8 7 6 6 7 8 8 7 6 6 5 5 6 6 6 6 5 5 5 5 5 5
3 1 1 3 1 2 2 2 3 3 3 3 3 6 8 3 3 2 4 2 2 2 1 3 1 1 3 1 2 5 6 11 7 4 6 7 8 18 28 26 30 35 34 33 31 30 29 29 28 27 24 21 20 20 20 19 18 16 16 16 15 14 14 14 13 13 13 13 12 11 11 12 11 10 10 9 8 8 7 8 9 8 8 7 6 6 5 4 4 4 4 5 4 4 4 4 4
5 3 0 2 2 1 1 2 3 3 4 4 4 7 8 5 3 3 4 3 3 2 2 4 2 3 3 2 4 4 4 10 12 10 7 9 11 18 27 27 30 35 34 33 32 30 29 28 28 27 24 21 20 19 19 19 18 17 17 18 17 16 15 15 15 15 14 14 15 13 12 13 13 11 11 11 10 10 10 9 10 10 9 9 8 7 5 4 4 4 3 4 3 3 3 3 2
4 4 1 2 2 1 3 2 2 3 4 4 5 9 8 5 3 4 4 4 2 1 3 1 2 4 2 2 6 4 3 7 12 13 9 9 12 19 26 27 30 34 34 33 32 31 30 28 27 27 26 24 22 19 19 19 18 18 18 19 18 17 16 16 16 16 16 15 15 15 15 14 14 13 13 12 11 11 11 11 11 12 11 9 8 7 6 5 4 3 3 3 2 2 2 1 1
3 4 2 3 2 1 3 3 3 4 5 4 6 9 7 4 3 3 3 4 3 2 2 2 2 4 1 3 5 4 5 6 10 13 10 10 13 20 25 26 29 32 33 33 32 31 30 29 27 27 27 25 25 22 20 20 19 18 17 18 18 18 18 17 16 16 16 16 15 16 16 15 14 15 14 13 12 12 12 13 12 12 11 10 9 8 7 6 5 4 3 3 2 2 1 1 1
2 2 3 3 2 2 3 3 5 6 6 4 4 4 1 4 3 3 3 3 2 2 4 5 3 3 2 3 3 5 6 7 9 11 11 10 13 20 24 26 28 30 32 32 31 31 30 29 28 28 26 25 25 24 22 21 20 18 18 18 18 18 18 17 16 16 16 16 16 16 16 16 16 16 14 13 13 12 12 12 12 11 11 10 9 9 8 7 5 4 4 3 2 1 1 2 2
2 2 3 2 2 2 2 2 4 5 6 3 4 2 1 4 4 5 4 2 2 1 5 7 2 2 2 4 3 6 4 5 8 10 11 11 14 20 25 26 28 29 30 31 31 31 30 30 29 28 27 25 24 24 23 22 21 20 19 19 19 19 18 18 17 17 17 17 17 17 16 16 16 16 15 14 13 13 12 12 12 11 11 11 10 9 8 7 6 5 4 3 2 1 1 2 3
2 3 3 2 0 1 3 2 2 1 4 4 3 2 1 3 4 4 4 2 5 3 3 5 4 2 3 2 4 5 2 3 7 11 10 11 15 21 25 27 28 29 29 30 31 31 31 30 29 29 28 26 25 25 24 23 22 22 21 20 20 20 19 18 18 18 18 18 18 18 17 17 16 16 16 15 14 14 14 13 13 12 12 11 10 9 8 7 6 5 5 3 3 2 2 2 3
3 2 3 3 1 1 2 3 1 2 4 5 3 0 1 4 4 3 4 3 5 4 1 2 5 2 2 3 4 3 1 3 7 11 11 14 17 21 25 26 27 28 29 30 30 31 31 31 30 29 28 28 27 27 26 25 23 23 22 21 21 21 21 20 19 19 19 19 19 19 18 18 17 17 16 16 15 15 15 15 14 13 12 11 10 9 8 7 6 5 5 4 3 2 2 2 2
3 3 4 1 1 1 3 3 2 2 4 5 2 1 2 5 3 2 4 3 4 2 0 3 4 2 3 5 5 3 2 3 8 11 12 15 18 21 23 25 27 28 29 30 31 31 31 31 31 30 30 29 29 28 28 26 25 24 23 23 23 22 22 22 21 20 20 20 20 20 19 18 18 17 17 17 17 17 16 16 15 14 13 11 10 9 8 7 6 5 4 4 3 2 2 1 1
2 3 3 0 2 2 3 4 4 3 5 5 3 1 1 5 2 2 1 2 4 3 2 5 3 3 5 5 4 2 3 4 10 12 14 16 18 19 21 24 26 28 30 31 32 32 32 32 32 32 32 31 31 30 29 27 27 26 25 24 24 24 24 23 22 21 21 21 21 21 20 19 19 19 19 19 19 18 17 16 16 15 13 12 10 9 8 7 6 5 5 4 3 2 1 1 1
3 3 2 1 3 4 6 7 7 4 3 5 3 2 2 5 4 2 0 0 3 4 6 5 5 8 9 9 7 5 5 8 13 16 17 17 18 18 21 25 28 30 32 33 34 34 34 34 33 33 33 33 32 31 30 29 28 27 27 26 26 25 24 23 23 23 22 22 22 21 21 20 20 20 20 20 19 18 18 17 16 15 14 12 11 9 8 7 6 6 5 4 3 2 2 1 1
3 3 2 3 5 5 6 7 5 4 4 5 5 2 3 5 3 0 2 5 4 6 9 3 6 12 11 12 12 9 8 12 15 18 19 20 22 24 25 26 28 31 33 36 38 37 36 36 35 35 34 34 33 32 32 31 30 29 28 28 27 26 25 24 24 24 23 23 23 22 21 21 21 20 20 19 19 19 19 18 17 15 14 13 12 10 9 8 7 6 5 4 3 3 2 2 2
1 3 2 6 7 5 5 6 8 7 4 3 7 2 2 5 3 1 3 5 5 7 11 6 8 12 11 10 11 12 12 14 17 19 20 23 26 28 28 28 31 35 38 40 39 39 39 38 38 37 36 35 35 34 33 32 32 31 30 30 28 28 27 26 25 25 25 24 23 22 22 22 21 21 20 20 20 20 20 19 18 16 15 13 12 11 10 8 7 6 6 5 4 4 3 3 3
2 4 5 6 4 3 6 9 10 7 3 4 5 4 5 5 3 3 3 3 7 10 11 11 14 14 11 8 9 12 12 14 17 19 21 23 25 28 30 32 34 37 37 36 37 40 41 41 39 38 37 37 36 35 35 34 33 32 32 31 30 29 28 28 27 26 26 25 24 23 22 22 22 22 22 22 22 22 21 20 18 16 15 13 12 10 9 9 8 7 7 6 6 5 4 4 4
2 4 6 6 4 4 7 8 8 5 3 4 3 5 6 2 1 5 7 5 9 10 9 12 15 12 11 8 7 9 9 11 14 18 22 24 26 28 30 31 31 31 31 34 39 41 42 42 41 40 39 38 38 37 36 36 34 34 33 33 31 31 30 29 29 28 27 26 25 24 24 24 24 24 24 23 23 23 22 20 18 16 15 14 12 11 10 10 9 8 8 7 7 6 5 5 5
2 4 5 6 6 6 5 4 5 5 4 5 4 4 3 1 6 6 10 12 15 14 12 13 12 10 9 6 6 8 9 10 12 20 27 27 28 30 33 33 34 33 32 36 38 39 41 43 43 41 41 40 40 38 37 37 36 36 35 34 33 33 32 31 31 30 29 28 27 26 25 26 26 26 26 25 24 23 22 20 18 17 16 15 14 13 12 11 10 10 9 8 8 7 7 6 5
3 4 5 6 6 9 7 3 4 5 6 8 2 5 7 8 7 2 9 14 17 18 16 13 10 8 7 6 7 9 11 12 16 27 31 30 32 35 35 35 36 33 31 34 36 37 40 43 44 43 43 42 41 40 39 39 38 37 36 35 35 34 33 33 32 31 30 29 28 27 27 27 27 27 27 26 25 24 23 21 20 19 17 16 15 14 13 13 12 11 11 10 9 8 8 7 6
5 7 5 3 3 8 8 4 4 5 8 6 1 7 16 13 4 7 13 14 16 18 17 11 8 8 7 9 11 10 10 12 18 24 26 30 33 32 32 33 31 29 32 36 36 37 40 41 43 45 45 44 42 42 41 41 40 39 38 38 37 36 35 34 33 32 31 30 29 29 29 29 29 29 29 28 27 25 24 22 21 20 19 18 17 16 15 14 13 13 12 11 10 9 8 8 7
7 8 5 3 5 7 6 7 7 6 6 4 3 11 16 9 1 12 19 15 16 17 16 11 7 10 10 11 13 11 11 13 16 20 23 29 28 27 33 33 29 33 38 38 37 39 39 39 42 45 46 45 44 43 43 43 42 41 41 40 39 38 36 35 34 33 32 32 31 31 31 31 31 30 30 29 28 27 25 24 23 22 21 20 18 17 16 15 14 14 13 12 12 11 10 9 8
4 4 5 7 8 8 4 6 7 4 6 6 8 13 15 5 3 11 15 8 10 10 12 10 5 11 12 10 12 10 10 15 18 17 17 20 23 29 35 31 33 40 39 36 39 41 39 39 41 44 46 46 45 45 45 45 44 44 43 42 41 39 38 37 36 35 34 33 33 32 33 33 32 31 30 30 29 28 27 26 25 24 23 21 20 18 17 16 15 14 14 13 13 12 11 10 9
2 1 6 9 7 10 6 6 8 4 5 7 11 10 11 3 2 15 18 4 5 7 10 11 6 11 11 10 11 7 9 16 17 13 14 19 25 33 35 34 39 42 39 41 43 40 39 40 41 42 45 46 47 47 47 47 47 46 45 44 43 41 39 38 37 37 36 35 34 34 35 34 33 32 31 31 30 29 28 27 27 26 24 23 22 20 19 18 17 16 15 15 14 13 12 11 10
1 3 4 9 7 11 10 7 6 6 4 5 9 4 7 5 9 20 17 3 5 7 10 12 10 11 10 9 9 7 10 14 12 14 21 27 31 33 35 39 41 41 42 43 40 37 40 42 42 43 44 46 49 50 49 49 49 48 47 46 45 43 41 40 39 38 37 36 36 36 36 36 35 34 33 32 31 30 30 29 28 27 26 24 23 22 21 20 19 18 17 16 15 14 13 12 11
2 2 0 6 7 9 8 1 1 4 5 6 7 3 5 9 15 20 11 4 6 6 9 11 11 10 8 8 7 8 10 10 11 20 29 33 34 33 35 39 38 39 40 37 36 40 42 42 43 43 44 47 49 50 50 50 51 50 49 48 46 45 44 43 41 40 39 38 38 38 38 37 37 36 35 34 33 32 31 31 30 29 28 26 25 24 23 22 21 20 19 18 17 15 14 13 12
3 2 1 2 2 7 7 1 3 2 4 6 4 5 7 9 15 18 7 4 5 6 9 11 11 10 8 7 6 9 9 10 17 26 31 34 34 33 35 37 34 37 37 35 39 41 42 42 43 44 45 47 48 50 51 52 52 51 50 49 48 48 46 45 43 42 41 40 40 40 40 39 38 37 36 35 35 34 33 33 32 31 30 28 27 25 24 23 22 21 20 19 18 17 16 14 12
1 2 3 1 3 6 10 5 6 7 4 3 5 5 7 9 14 16 6 4 3 7 9 10 11 11 10 8 7 9 10 12 18 26 32 32 32 32 34 34 32 34 36 37 39 38 39 41 43 44 45 47 48 50 51 51 51 50 50 50 49 49 48 47 45 44 43 42 42 42 42 41 40 39 38 38 37 36 35 35 34 33 31 30 28 27 26 25 23 22 21 20 19 19 17 15 13
2 2 5 4 5 4 7 9 7 8 3 1 7 6 6 7 10 12 8 3 3 7 10 12 14 13 12 11 9 10 11 13 14 21 29 28 29 33 33 33 31 33 36 37 38 38 39 41 42 44 45 47 49 49 49 49 49 49 49 49 48 49 49 49 47 46 45 44 44 44 44 43 42 41 40 40 38 38 37 37 36 34 33 31 30 29 28 26 25 24 23 21 20 19 18 17 14
3 2 5 5 5 5 4 8 7 1 6 5 6 7 9 11 10 10 11 11 9 11 14 16 15 14 13 12 12 12 12 12 13 20 25 20 22 28 29 31 31 32 34 36 37 38 40 40 42 44 45 45 46 47 47 47 47 46 45 45 46 47 49 49 48 47 47 46 46 46 45 44 44 43 42 41 40 40 39 38 37 36 34 33 31 30 29 28 26 25 24 23 21 19 18 18 15
6 5 4 4 4 5 6 7 5 4 3 4 3 8 14 15 13 13 14 11 11 16 17 16 16 15 14 13 13 13 11 13 16 21 22 15 16 21 22 26 28 30 32 34 36 37 38 38 39 42 43 43 44 44 44 43 41 41 41 42 42 45 46 47 48 49 49 48 48 48 47 47 46 45 44 44 43 42 41 40 39 37 36 34 33 32 31 30 28 27 26 24 23 20 18 17 16
6 4 4 5 5 6 8 9 7 5 7 6 8 16 16 13 14 13 14 10 10 15 17 16 15 15 15 13 12 11 12 15 15 18 18 15 15 17 19 22 24 27 29 31 33 35 36 37 37 40 42 43 42 41 40 39 38 39 39 39 42 45 47 48 49 50 50 50 50 49 49 49 48 48 47 46 45 44 43 42 40 39 37 36 36 35 34 32 31 30 28 26 25 22 20 18 16
1 2 4 6 7 8 9 10 8 1 4 8 11 18 17 13 14 13 13 13 11 15 18 17 16 16 16 14 13 13 14 14 11 12 13 13 15 15 17 19 20 23 26 28 31 34 36 37 38 40 42 42 42 42 42 42 42 42 41 43 48 50 49 49 49 51 52 52 52 51 51 51 50 50 49 48 47 46 44 43 42 40 39 38 38 36 35 33 32 31 29 27 25 24 22 20 18
5 5 7 7 6 11 11 11 11 2 2 6 7 15 17 13 15 14 13 14 17 18 16 16 18 18 16 15 17 15 10 9 8 8 9 11 13 14 15 17 19 22 25 28 31 34 36 36 39 41 40 40 43 44 44 45 48 47 47 50 52 50 49 50 51 53 53 52 51 51 51 51 51 51 51 50 48 47 46 44 43 42 41 40 38 37 35 35 34 33 31 29 26 25 23 22 22
6 4 5 6 4 9 10 8 9 2 2 5 7 14 15 12 17 18 17 17 16 15 12 13 17 17 18 17 14 10 8 8 6 6 8 10 12 13 14 16 19 23 25 26 28 31 33 35 39 39 38 40 42 44 44 46 47 46 44 43 43 41 42 46 48 47 48 49 49 49 50 51 52 52 51 50 49 48 47 46 45 44 43 42 40 39 38 37 36 35 34 31 28 25 22 22 25
6 5 4 7 4 5 7 5 5 3 3 6 9 14 13 11 15 16 15 12 11 14 13 13 16 17 20 16 8 7 9 10 9 6 5 7 11 13 14 16 18 20 22 23 25 28 31 34 37 37 37 39 41 43 44 44 40 38 37 34 32 33 34 37 39 40 43 44 45 48 50 51 51 51 51 50 49 49 48 47 47 45 45 44 43 42 41 40 39 38 36 34 31 27 23 23 26
7 6 5 9 10 10 10 6 6 6 5 4 7 12 9 5 7 6 5 4 6 11 11 14 17 14 12 11 7 5 6 7 8 6 5 7 9 13 15 15 15 17 20 22 23 26 30 33 35 36 37 38 40 42 42 40 36 34 34 29 26 28 28 29 34 39 40 41 45 48 49 50 51 51 51 51 50 50 50 49 48 47 47 46 44 44 43 42 41 40 38 37 34 31 27 25 26
6 5 11 15 14 11 11 8 7 5 4 4 5 7 7 1 1 4 3 3 5 5 8 17 15 2 2 7 6 3 3 3 3 4 6 6 7 12 16 16 14 15 18 19 20 23 27 30 32 33 35 36 37 39 39 38 37 35 35 32 29 29 29 33 41 44 43 45 48 49 49 50 51 51 51 51 51 51 51 50 49 49 48 48 47 45 44 43 42 42 40 39 37 34 30 26 26
7 5 11 14 10 8 10 7 4 1 4 3 3 2 7 4 2 6 4 3 8 8 11 17 9 4 3 6 5 5 4 3 2 4 6 5 6 9 13 15 16 16 17 17 17 18 22 26 28 30 32 34 35 36 37 38 38 37 37 37 34 33 34 38 41 39 40 45 45 45 48 50 51 52 52 51 51 51 51 51 50 50 49 49 48 47 46 45 44 43 42 42 39 35 31 28 28
6 4 6 8 7 7 6 3 3 3 3 3 1 3 6 9 4 4 3 3 8 12 13 14 9 6 7 5 4 4 2 1 3 5 4 5 6 6 8 14 15 15 16 16 15 15 16 20 24 27 29 32 33 34 35 38 39 38 38 38 35 36 37 35 31 30 33 38 39 40 43 46 49 50 51 51 52 51 51 51 51 50 50 50 50 49 49 47 46 45 44 43 41 39 35 31 31
6 2 4 5 5 4 4 4 4 2 3 4 3 4 3 10 5 1 2 3 7 12 12 12 9 8 9 4 4 2 1 1 4 6 4 4 8 7 8 12 14 14 14 14 14 13 12 14 19 23 26 28 31 32 34 37 39 38 37 38 37 37 36 29 25 27 30 32 35 37 38 41 45 46 48 49 50 51 51 51 51 51 51 51 51 51 50 49 48 47 47 46 45 43 39 34 32
4 5 5 4 3 3 3 2 2 2 4 4 5 5 3 9 5 3 3 1 6 9 8 9 8 7 7 4 3 1 3 4 5 6 4 5 6 9 11 12 13 13 13 13 13 12 10 10 13 18 22 26 28 31 33 36 38 37 37 38 37 35 32 28 25 26 28 30 32 34 35 38 40 43 45 46 48 49 50 50 50 51 52 51 52 51 51 50 50 49 48 48 47 45 42 38 35
3 5 4 5 4 4 3 1 3 2 6 5 9 10 5 6 4 4 3 3 5 5 5 7 7 4 4 4 2 2 4 5 6 4 4 6 9 13 13 14 16 16 15 14 13 11 9 8 9 13 18 22 26 29 31 34 36 38 38 37 37 34 30 28 28 27 29 31 33 34 36 36 38 41 43 44 46 48 49 49 50 51 51 51 52 53 53 53 52 51 49 48 48 47 45 42 38
3 3 3 3 3 4 4 4 3 1 7 5 8 10 7 7 5 1 4 6 5 5 4 6 8 7 7 5 2 4 2 6 5 5 5 6 10 12 13 16 19 21 22 20 17 14 10 7 7 10 13 18 23 26 29 32 34 37 38 36 36 35 32 30 31 30 31 33 35 36 36 37 38 40 42 44 47 48 48 49 49 50 51 51 52 53 53 53 52 51 50 49 49 48 46 44 41
3 3 1 2 4 3 3 2 1 3 7 4 2 3 4 9 6 3 9 13 9 6 6 7 7 8 10 8 3 4 3 5 5 6 5 6 6 6 10 15 18 22 25 24 21 17 13 9 7 9 11 14 19 23 27 30 33 37 38 36 36 35 34 34 34 33 33 34 35 35 36 38 39 41 44 47 50 51 50 51 52 52 52 52 52 52 52 52 51 51 51 50 50 49 48 46 44
4 4 4 2 1 2 3 2 2 4 5 4 2 1 4 8 5 6 12 13 8 3 5 8 7 8 11 9 5 4 4 5 6 6 7 7 6 7 11 15 17 21 25 26 25 20 16 13 11 10 12 12 15 21 25 28 32 35 36 36 36 34 34 35 35 34 33 34 35 36 38 40 41 44 48 51 52 52 52 54 54 54 54 54 53 53 52 52 52 52 51 51 50 50 49 47 46
5 5 5 4 3 3 4 3 4 6 4 3 2 2 3 3 3 5 8 7 6 4 3 4 5 6 8 6 5 6 6 7 7 8 9 9 9 11 13 14 18 24 29 31 30 25 20 18 15 13 14 13 13 17 22 26 30 33 34 35 35 34 34 34 34 34 33 34 34 35 37 39 42 45 46 48 48 49 53 54 53 53 54 54 54 53 52 52 52 52 52 51 51 49 48 47 46
3 4 4 2 4 4 3 4 5 3 3 3 2 3 5 4 7 9 6 5 6 5 4 4 5 5 5 5 6 7 8 8 9 9 11 11 11 13 15 17 22 28 32 33 32 29 24 21 19 17 16 15 14 15 18 23 27 29 31 33 34 34 33 32 33 33 33 34 34 35 37 40 42 42 42 43 43 46 49 51 52 53 53 53 54 53 53 54 53 53 52 51 51 50 49 48 47
2 3 3 3 3 5 2 5 2 1 3 6 4 6 6 5 10 8 3 5 5 6 6 4 4 6 6 6 7 8 9 10 10 11 11 11 12 16 21 23 26 28 30 31 31 29 27 25 22 20 19 18 16 15 17 20 23 26 29 31 32 33 33 34 34 34 34 34 34 36 37 38 39 39 39 40 40 42 44 47 49 51 51 52 52 52 53 53 53 53 54 53 53 51 50 49 48
5 3 4 1 2 3 1 2 0 1 6 6 5 10 10 6 8 4 6 9 8 7 7 5 4 6 7 7 8 9 10 11 12 13 13 11 13 17 21 23 24 23 24 25 26 28 32 33 30 26 24 23 21 19 18 19 21 23 26 28 30 32 33 34 34 33 33 32 33 35 36 38 38 38 39 39 39 40 42 44 45 46 47 48 49 50 50 51 51 53 53 53 53 51 50 50 49
4 3 2 1 1 2 1 2 1 4 7 4 5 11 9 6 9 7 7 10 7 5 6 7 9 10 10 10 11 13 13 12 12 12 11 10 11 15 18 19 19 20 21 21 22 26 31 32 32 31 31 30 28 24 21 20 20 22 24 25 27 30 31 32 33 32 32 32 33 35 36 38 38 38 39 39 39 40 42 44 44 44 44 44 45 47 48 49 49 51 51 51 50 50 50 50 49
2 1 2 1 2 3 2 2 1 3 7 6 6 8 6 5 7 7 5 5 5 6 7 10 12 12 11 11 11 13 12 11 10 9 8 7 9 12 15 15 16 17 15 15 19 26 31 33 35 37 38 39 37 33 27 23 21 21 23 24 25 28 30 31 32 32 32 33 34 35 36 37 38 39 39 39 39 40 42 43 45 45 45 44 44 45 46 47 48 49 50 50 50 49 49 50 49
1 1 2 2 1 1 2 1 1 2 5 5 5 5 5 3 5 7 5 5 7 9 9 10 11 11 11 10 10 9 9 9 9 7 7 6 9 13 15 15 15 16 19 24 30 36 39 40 41 41 40 40 39 38 34 29 24 21 22 23 24 26 28 30 32 32 34 34 35 35 36 37 38 38 38 39 40 40 41 42 43 45 45 45 44 45 45 46 47 49 49 48 48 48 50 50 48
5 4 5 5 4 2 5 5 4 3 4 4 6 8 6 4 6 7 5 9 9 9 9 9 9 9 9 9 9 8 8 9 8 9 9 9 12 17 21 23 24 27 31 35 38 39 39 38 38 38 38 38 37 37 37 34 29 24 22 23 24 25 26 28 30 32 34 35 35 36 37 37 38 38 38 39 40 40 40 41 43 44 45 45 44 45 45 46 47 49 49 48 48 48 50 49 47
Wind_Direction
307 309 317 335 310 268 346 41 72 327 70 275 284 253 262 246 301 294 279 278 278 237 195 225 161 158 138 173 204 200 191 179 176 157 222 238 238 187 178 178 176 173 175 175 173 175 175 173 174 176 180 182 185 184 183 185 184 185 185 186 186 185 182 180 180 181 181 179 176 171 166 159 154 149 143 141 137 131 127 122 119 123 128 129 126 121 127 147 171 170 154 180 197 162 22 41 46
318 321 351 42 17 19 245 57 96 329 39 298 273 186 268 314 309 244 242 240 232 237 300 222 193 262 335 132 174 189 243 214 198 186 267 259 260 197 181 177 175 174 176 175 174 177 175 172 174 176 178 180 183 182 182 185 183 183 184 182 180 181 178 176 175 175 175 172 168 165 162 154 150 148 146 147 143 143 140 128 122 124 124 126 129 124 123 142 190 207 221 227 230 321 2 2 1
340 338 4 139 21 39 87 41 107 21 29 288 280 228 257 274 231 231 234 238 241 282 335 142 189 279 215 271 270 171 259 258 230 209 282 243 240 198 183 177 174 175 177 177 175 177 175 170 172 174 176 177 178 179 181 182 180 179 180 178 176 176 174 172 170 168 168 163 160 158 156 152 149 145 151 154 148 155 158 148 145 136 126 129 132 126 118 131 187 215 243 243 241 291 321 324 323
46 19 345 206 43 31 65 37 126 135 223 256 280 252 223 216 233 244 249 255 260 296 292 137 167 243 180 239 251 224 263 265 225 192 260 220 213 196 182 177 173 176 178 179 177 177 176 171 169 171 174 175 175 177 178 178 178 177 176 177 175 175 174 172 168 166 164 160 160 160 157 152 148 151 161 169 161 164 175 166 160 158 152 146 152 136 119 159 196 208 229 240 252 276 287 295 298
71 40 16 123 109 45 96 61 99 138 214 190 244 261 229 218 239 263 270 277 266 199 197 149 227 286 174 227 201 230 249 259 236 200 228 224 213 192 181 178 174 177 179 180 179 178 177 173 170 170 173 175 176 176 176 178 179 178 176 177 178 176 175 174 171 167 166 166 167 164 163 160 168 172 172 192 190 177 195 185 164 184 187 170 184 157 134 208 222 226 237 249 261 270 276 285 287
110 59 43 75 97 97 122 149 167 208 226 172 212 262 243 220 233 263 287 296 271 195 192 170 250 304 256 253 209 219 224 237 200 201 218 228 212 187 181 181 176 178 181 182 181 180 179 176 174 172 173 178 180 180 180 181 181 184 182 179 184 182 179 180 178 177 175 176 177 175 177 179 190 193 192 211 208 191 199 181 164 186 190 168 167 159 185 230 238 244 249 256 263 269 273 279 280
117 91 31 69 71 36 120 198 201 238 241 179 200 266 274 236 207 275 314 322 347 214 194 244 249 80 254 284 264 242 227 219 203 195 209 212 205 185 184 183 179 180 182 184 183 183 182 180 179 176 176 183 186 187 188 189 188 191 193 188 189 190 188 190 189 189 189 188 190 192 196 203 205 198 197 206 198 182 179 171 171 178 170 151 149 170 218 236 239 241 244 248 254 260 265 269 272
75 106 348 91 82 12 110 239 242 223 248 221 222 253 275 262 193 276 301 309 284 250 188 259 237 181 267 355 277 252 234 228 231 234 214 213 203 185 187 186 182 182 184 186 185 185 186 184 183 181 179 184 191 195 197 197 195 194 199 199 196 197 196 199 200 198 201 203 204 207 210 210 203 190 188 188 180 171 166 163 166 165 165 174 187 207 224 223 224 225 229 236 241 246 253 264 270
55 47 162 89 122 2 31 288 271 235 255 262 255 250 269 265 209 250 262 273 278 243 232 248 177 203 295 354 262 275 268 235 229 234 223 213 203 189 190 190 187 185 186 188 188 188 189 189 189 188 183 183 193 202 201 196 197 198 203 205 201 202 203 205 208 206 209 209 206 207 206 202 195 185 182 182 179 169 163 165 174 187 198 208 213 218 212 200 210 215 221 227 232 237 244 261 273
39 25 152 84 106 328 318 278 260 253 250 249 265 258 265 261 215 227 241 270 258 213 266 216 162 231 309 311 266 281 262 238 224 225 222 209 199 193 193 193 191 188 188 189 191 192 193 194 194 195 192 187 191 199 199 195 198 201 204 205 200 202 206 206 207 205 205 204 200 198 196 197 192 184 182 181 179 175 178 189 200 209 213 213 212 211 203 198 208 210 210 206 208 218 217 234 263
39 358 108 83 75 286 271 255 266 266 268 290 283 262 257 238 211 228 224 274 243 217 273 131 178 224 292 286 260 254 246 253 230 219 217 208 198 195 195 194 193 191 191 192 193 195 196 198 199 201 199 195 193 196 199 200 201 199 201 201 198 202 204 203 201 199 198 196 194 191 190 190 186 182 184 183 181 185 194 202 207 209 208 207 205 203 199 195 197 190 181 173 173 176 160 135 111
88 334 66 95 163 211 227 248 274 280 294 301 272 263 241 155 162 220 208 255 236 246 244 183 194 163 148 275 257 270 266 263 240 218 214 206 199 196 196 195 193 194 195 196 196 198 200 201 204 204 205 202 199 201 202 203 201 198 199 198 198 200 199 198 196 194 193 192 189 186 186 185 185 185 185 186 189 194 199 202 204 203 201 199 196 195 192 189 185 174 168 159 153 142 105 86 90
125 150 91 132 184 173 184 237 273 303 307 263 236 252 128 148 186 211 184 229 212 269 254 206 178 116 208 258 281 299 289 261 232 211 211 203 198 195 195 196 195 196 198 200 201 202 203 205 207 207 208 207 205 204 204 204 201 197 198 196 197 198 197 195 193 193 191 190 187 185 184 184 188 189 187 191 195 198 199 200 198 194 191 190 188 187 185 182 177 169 165 158 148 120 80 64 66
140 149 118 147 105 138 176 261 285 333 289 252 253 265 162 205 208 189 151 263 242 201 253 206 155 155 244 267 306 295 284 269 216 202 205 197 197 195 196 197 197 198 200 204 205 206 207 207 208 209 209 207 206 203 204 205 201 198 197 195 196 197 196 195 193 193 190 189 188 186 185 184 188 189 190 195 197 197 196 195 191 187 186 185 184 182 180 175 170 166 161 158 148 125 90 63 52
132 136 91 119 58 339 201 243 196 133 257 250 250 231 334 252 169 151 184 223 258 209 265 217 167 203 206 196 260 252 270 284 203 196 198 193 194 195 196 198 199 200 202 206 208 210 210 210 210 210 209 207 206 204 205 205 201 199 196 195 196 196 196 195 194 192 191 190 190 189 188 188 189 191 193 195 195 194 190 187 185 186 187 184 183 179 175 170 165 163 158 155 142 127 105 81 59
115 114 70 96 200 273 217 215 155 137 248 240 245 121 350 279 152 174 227 187 280 276 260 213 190 231 182 191 232 226 308 263 193 191 190 189 190 193 197 199 202 203 205 208 209 212 212 212 211 210 209 208 207 206 206 205 203 201 197 197 197 197 196 196 196 193 193 193 193 194 195 195 193 194 194 192 192 190 187 184 183 185 187 183 181 175 170 168 164 162 157 154 146 135 114 95 74
78 85 77 340 205 210 203 195 187 186 252 266 291 132 94 300 251 235 242 134 261 275 265 236 219 230 206 214 238 253 283 213 186 185 180 183 187 191 199 202 205 207 208 210 211 212 213 213 212 210 210 209 208 208 208 205 205 204 199 199 199 199 198 198 198 196 197 196 198 200 200 200 197 196 194 193 191 189 186 184 182 184 185 182 179 175 171 169 166 164 162 160 159 153 142 125 97
66 89 122 223 203 203 189 190 199 193 254 265 274 160 159 292 290 270 322 276 275 284 271 256 272 256 238 251 262 264 246 199 186 183 177 180 185 190 201 205 207 210 211 211 212 212 212 213 212 211 211 210 210 210 210 206 206 205 202 202 201 202 201 201 202 201 202 202 205 206 205 204 201 199 197 195 192 188 186 184 184 185 185 182 178 176 173 172 170 170 169 169 169 167 170 173 186
94 121 159 227 206 213 197 187 195 206 236 258 273 235 195 252 257 39 252 275 312 296 273 235 256 264 256 252 248 244 221 200 194 188 185 185 189 195 202 206 208 212 213 213 213 212 212 213 213 213 213 212 212 211 210 207 207 207 205 205 204 204 204 204 205 206 207 209 210 209 208 206 203 202 199 196 192 187 187 187 187 186 185 183 181 179 177 177 177 177 176 177 179 179 187 192 201
157 137 201 239 218 231 228 209 211 219 234 281 281 279 225 238 220 175 224 275 293 262 264 249 245 257 255 241 229 226 212 204 201 197 199 199 200 202 203 205 208 213 215 215 214 213 213 214 214 214 213 213 213 212 211 208 208 209 208 207 206 206 207 208 209 211 212 213 213 212 210 206 204 202 199 196 192 189 189 189 190 189 187 186 185 183 181 182 181 181 180 180 184 184 190 194 196
176 156 205 231 199 239 236 217 222 224 218 242 272 318 292 254 187 186 177 281 281 250 247 241 245 252 251 241 214 210 204 205 206 207 212 212 212 212 212 212 214 217 217 216 216 215 214 215 215 214 214 213 213 213 212 210 209 210 209 209 209 209 210 211 212 214 215 216 215 214 210 206 204 201 199 196 195 194 193 194 194 192 191 188 188 188 186 184 183 185 185 184 186 186 188 190 192
176 209 226 219 156 242 239 208 221 202 172 228 262 294 281 276 209 199 173 217 254 253 246 231 237 243 247 243 203 196 201 208 209 214 220 219 220 220 221 221 221 221 218 219 219 218 216 215 215 215 214 214 215 215 214 212 211 211 211 211 211 211 212 213 214 215 216 217 216 213 209 206 204 202 201 199 198 198 199 199 197 195 193 192 190 190 190 188 189 189 187 188 186 186 188 188 191
236 250 251 234 189 231 243 184 203 167 158 219 220 272 290 309 275 214 175 217 243 253 255 244 242 237 240 236 180 188 205 210 211 217 220 221 223 223 224 225 224 223 221 222 222 220 218 216 216 215 215 215 215 216 216 215 213 213 214 213 213 213 214 215 216 216 217 218 216 213 210 207 205 204 203 202 201 201 201 201 199 197 196 196 194 193 194 190 191 191 188 189 186 186 186 187 190
249 260 256 243 211 228 245 206 196 181 216 235 213 323 287 251 270 254 188 220 243 254 256 254 257 245 234 228 205 208 210 211 220 223 224 224 226 229 229 228 227 226 223 225 224 223 221 218 217 216 217 217 216 217 216 217 216 216 215 215 216 216 216 217 217 217 217 217 216 213 211 210 208 206 206 205 204 202 202 202 201 200 198 199 197 194 197 193 190 190 189 188 186 185 185 186 189
222 234 242 244 228 239 258 268 240 239 248 245 256 282 267 256 265 285 250 231 240 252 259 260 261 258 241 241 239 228 221 221 228 231 230 231 233 236 236 233 230 228 228 228 227 225 224 221 218 217 217 217 217 217 216 218 218 217 217 217 217 217 218 219 218 217 217 217 215 213 212 211 210 209 208 206 204 203 202 202 201 201 199 199 199 195 197 197 190 188 188 187 187 186 186 187 190
216 220 251 273 274 269 276 273 243 240 248 188 190 256 265 275 306 271 260 237 239 249 264 267 258 261 248 246 248 235 230 228 230 232 232 235 235 237 239 235 230 231 232 230 228 228 226 223 221 220 219 218 217 217 217 218 218 218 218 219 218 218 219 219 219 218 218 217 215 213 213 213 213 211 209 207 205 203 201 202 202 201 200 199 201 197 194 197 194 188 187 187 187 187 187 187 191
192 204 274 266 274 286 261 261 255 246 262 189 192 252 264 294 57 267 260 220 229 244 264 265 238 254 249 242 250 240 234 234 233 230 232 236 231 233 238 234 230 233 233 230 230 230 227 224 224 222 220 219 218 218 218 219 219 219 220 219 219 219 219 220 219 219 218 218 216 214 214 214 214 213 211 209 205 204 202 202 202 201 201 200 200 199 194 194 195 191 187 187 188 186 186 185 189
99 112 302 278 292 295 246 247 264 233 266 201 186 249 276 312 129 250 257 192 184 230 262 268 237 249 252 243 249 243 239 243 238 225 226 230 227 229 232 230 231 233 231 231 232 228 226 226 226 224 222 220 219 219 219 219 220 220 221 220 220 220 220 220 220 220 219 218 217 215 215 214 214 214 212 210 207 205 204 203 202 202 202 201 199 199 195 192 192 191 188 187 187 186 187 185 186
29 64 315 290 327 304 262 247 248 187 229 179 157 248 285 251 223 247 259 181 181 234 260 271 258 252 253 247 252 246 244 248 236 222 229 233 233 231 231 234 233 231 233 233 230 227 227 227 226 225 223 221 220 220 220 220 221 221 221 221 221 220 220 221 221 221 220 218 217 216 216 215 215 214 211 210 209 207 206 204 204 203 203 202 199 197 195 193 191 191 188 186 186 185 187 187 187
279 52 326 293 335 303 274 252 96 168 205 163 146 256 257 239 244 255 264 154 182 234 250 262 266 263 259 249 250 252 249 244 231 230 234 237 238 235 236 240 236 233 235 231 228 228 229 227 225 224 222 222 221 221 220 220 222 221 221 221 221 221 220 221 222 222 221 219 218 216 216 216 215 214 212 210 209 208 208 206 206 204 203 202 200 198 196 195 193 192 190 187 186 186 188 188 189
287 304 203 305 296 279 300 36 121 222 228 152 157 258 248 251 260 262 269 127 179 238 255 259 264 266 267 257 250 258 255 238 236 240 240 240 241 240 240 243 238 236 234 229 231 232 229 226 224 223 223 223 221 221 221 221 222 221 221 221 220 221 221 222 222 222 222 220 218 217 216 216 215 215 213 211 209 208 209 208 207 206 204 203 201 199 197 197 194 193 192 189 186 186 189 188 190
9 284 270 275 207 266 308 295 190 224 271 117 166 245 259 257 262 265 293 69 168 243 262 263 265 268 270 268 256 260 264 250 245 248 249 245 244 244 244 245 241 238 235 233 233 231 228 226 224 224 222 222 222 222 222 221 221 221 221 221 221 221 221 222 222 222 222 221 219 218 217 216 216 215 214 212 210 209 210 209 209 207 206 204 201 200 198 197 195 193 193 193 191 187 188 188 189
334 230 248 254 238 274 315 299 247 213 205 160 214 236 272 260 260 275 303 329 238 246 267 268 269 271 271 272 266 260 265 267 261 257 256 250 247 249 249 249 246 242 240 237 233 229 228 227 224 224 223 223 223 221 221 220 220 220 220 220 220 221 221 222 222 222 222 221 220 218 217 216 216 216 215 213 212 211 211 211 210 208 207 205 202 201 199 198 197 194 193 193 195 192 189 187 186
272 222 239 246 246 268 299 294 298 195 164 208 241 243 256 262 273 290 296 294 286 275 274 271 271 273 270 269 266 261 260 267 269 264 263 258 254 255 254 254 252 247 244 240 236 232 230 228 225 224 223 223 222 220 219 219 218 218 219 220 220 221 222 222 222 222 222 221 220 219 218 217 217 216 215 214 213 212 212 211 211 209 208 205 203 202 199 198 198 197 195 192 194 195 192 188 186
242 234 250 271 255 253 259 264 300 337 234 220 287 265 255 264 274 279 279 281 283 278 277 277 277 274 269 265 263 263 262 259 257 264 274 279 270 267 263 259 255 250 247 242 239 235 232 228 225 224 223 222 221 220 218 216 215 216 217 218 220 221 222 222 222 222 222 222 221 220 219 218 217 217 216 215 213 212 211 211 211 210 208 206 204 202 200 198 198 198 198 195 192 192 194 191 186
239 227 238 270 279 253 243 253 266 304 289 269 270 268 266 270 270 272 276 270 263 272 278 279 278 276 272 268 264 263 261 258 260 272 284 289 280 276 271 265 259 253 248 243 239 234 230 227 225 224 222 221 219 216 214 212 211 212 214 215 218 221 221 221 222 222 222 222 222 221 220 218 218 217 216 215 214 212 211 211 210 210 209 207 205 203 201 200 199 198 198 198 194 189 190 188 184
312 250 262 262 272 271 263 271 270 228 288 265 255 271 278 276 273 271 275 277 267 263 268 273 276 277 275 274 270 264 259 264 280 293 299 301 291 285 275 267 260 252 245 240 236 232 230 226 224 223 222 218 215 212 210 208 208 207 209 213 217 219 219 219 220 221 222 222 222 221 220 219 218 218 217 215 214 212 211 210 210 209 209 208 208 206 204 202 200 200 199 198 198 192 187 185 183
273 256 278 271 259 272 271 274 278 253 249 258 251 273 277 275 277 272 264 265 261 258 261 270 274 275 277 277 271 269 270 279 302 325 340 336 314 296 280 266 254 248 244 238 234 233 230 225 224 224 221 216 214 213 210 209 210 209 209 213 216 217 217 217 218 220 220 221 221 219 219 218 218 218 217 215 213 212 211 210 210 210 210 209 209 208 206 203 201 201 200 197 197 195 190 186 181
252 246 277 276 260 279 274 263 282 303 219 271 280 278 277 270 267 261 253 251 257 265 262 261 268 272 273 271 273 292 309 308 328 8 11 350 324 303 284 267 256 251 249 244 238 235 229 225 225 224 220 216 215 214 212 212 213 213 212 214 215 214 216 218 219 220 220 219 219 218 218 217 217 217 216 215 213 212 212 212 212 212 211 210 208 207 206 205 203 202 202 199 196 193 192 191 187
226 218 261 272 255 273 269 258 305 324 242 274 293 286 281 265 258 257 257 255 258 267 262 254 256 257 263 272 297 320 313 314 331 356 358 326 307 294 282 274 270 263 256 250 243 236 230 228 227 223 220 219 217 215 215 215 214 214 214 217 218 216 219 220 218 221 221 219 219 218 218 217 217 217 216 215 214 214 214 214 214 213 213 212 210 209 207 206 205 204 203 202 197 192 191 193 193
227 206 227 258 253 248 252 272 329 323 282 295 312 298 289 258 250 258 281 290 257 257 266 262 254 249 265 290 308 298 299 317 324 326 315 298 294 297 298 297 292 279 269 263 254 244 237 234 231 226 223 221 219 217 215 213 212 211 210 214 217 215 217 217 215 219 219 218 219 218 217 217 216 217 217 217 216 216 215 215 215 214 213 212 211 211 211 208 207 206 204 203 201 198 195 193 196
263 213 212 238 253 255 260 288 341 343 308 340 3 321 301 312 216 270 313 322 267 252 252 253 256 283 356 297 302 353 18 343 298 288 287 284 301 314 317 323 318 298 290 286 275 260 249 241 235 229 225 222 221 218 214 210 209 208 205 203 203 203 206 210 212 215 214 215 218 218 217 217 216 217 217 217 217 216 216 215 215 215 214 212 212 212 213 211 209 208 208 206 205 205 201 194 194
283 235 211 228 246 256 264 284 327 298 260 297 43 350 286 288 223 258 267 259 269 262 248 255 272 10 345 287 323 31 33 355 311 273 274 296 325 317 317 331 333 320 316 311 296 279 261 248 240 233 228 224 222 218 213 210 208 208 206 206 206 205 208 215 217 217 215 216 217 217 217 217 216 216 216 217 216 216 216 215 215 215 214 214 213 212 213 213 212 211 210 209 208 207 205 200 197
267 242 192 202 224 239 238 238 233 239 277 298 158 149 277 284 252 253 234 187 257 262 258 272 291 311 292 291 17 56 97 211 270 273 295 323 309 289 308 333 339 336 336 329 316 300 278 258 246 238 232 227 223 219 214 211 210 209 209 211 213 215 217 222 223 221 220 219 217 217 217 216 216 216 216 216 216 216 216 215 215 214 214 214 213 213 215 215 214 212 211 211 210 208 209 208 204
253 196 135 160 195 209 171 179 216 260 340 302 222 149 253 278 267 26 60 162 243 260 264 277 289 300 297 312 53 70 207 205 260 288 328 295 278 299 336 346 349 352 351 345 334 318 296 271 253 242 236 230 226 222 217 215 213 212 212 212 216 220 222 226 228 225 222 220 217 217 216 216 215 214 215 216 215 215 215 215 215 214 214 214 214 215 216 216 215 214 213 212 211 210 211 212 211
227 122 91 74 78 76 101 155 150 59 311 255 201 172 234 280 274 98 68 204 235 257 269 278 281 284 288 323 44 14 336 342 286 285 301 280 305 350 359 358 1 2 358 354 347 335 317 288 260 246 240 234 229 225 220 218 216 214 215 216 218 222 222 223 227 225 221 218 217 216 216 216 215 214 214 215 215 215 215 215 215 215 215 216 216 216 216 216 216 216 216 214 213 213 212 212 215
140 107 58 34 40 38 51 42 80 60 285 238 187 186 193 284 281 143 176 227 218 244 284 295 304 313 306 320 345 20 11 315 284 313 326 327 6 13 7 8 8 3 359 357 353 346 332 306 273 256 247 239 233 228 224 221 218 217 218 219 220 222 222 220 221 220 216 214 214 214 214 215 215 215 214 214 215 216 216 216 216 217 217 216 217 217 217 217 217 217 217 216 215 215 214 214 215
101 86 45 5 338 14 27 356 43 161 269 249 189 186 187 238 262 189 254 260 230 225 266 299 317 325 313 301 329 37 350 272 300 0 350 358 17 11 4 7 5 0 359 356 352 348 340 322 292 270 258 246 238 232 228 225 221 221 222 222 223 223 222 221 220 219 215 213 213 212 212 213 214 215 214 214 216 216 215 215 216 217 217 217 218 218 219 219 218 218 218 217 216 216 216 215 214
93 99 82 336 319 347 351 324 63 216 263 282 217 187 221 245 263 280 271 274 262 227 224 251 274 292 295 300 3 39 314 299 351 7 359 9 6 353 358 1 359 357 356 354 352 348 341 334 314 288 277 261 246 239 233 229 226 225 225 225 225 225 223 223 223 222 220 217 215 212 211 211 211 212 213 215 216 216 215 215 216 217 217 218 219 219 219 219 218 218 219 218 218 217 217 217 216
149 156 159 159 199 272 276 258 262 266 278 311 313 264 276 280 285 243 247 269 287 252 220 237 253 272 284 299 356 20 329 334 1 6 7 2 352 0 358 354 357 357 355 357 358 353 346 341 329 310 300 282 258 247 240 235 232 230 228 228 228 227 225 225 226 225 224 222 218 215 214 213 213 215 216 217 218 216 216 216 217 217 218 218 219 219 219 218 218 219 220 220 219 219 219 219 218
180 162 142 157 177 210 242 227 257 280 289 310 299 199 233 260 276 241 235 265 300 302 278 276 274 266 277 310 9 10 348 357 4 10 10 358 359 1 349 351 4 5 4 5 3 359 354 347 337 324 316 303 278 259 248 242 240 235 232 231 231 230 229 229 228 228 227 225 222 219 218 218 218 220 220 220 219 217 217 217 216 217 218 218 218 218 217 218 218 218 219 220 221 221 220 220 219
200 132 121 201 193 181 230 234 227 253 290 283 239 224 233 232 269 273 267 283 298 308 307 299 293 292 313 357 28 11 359 10 8 12 14 8 13 10 4 15 18 13 11 9 7 6 4 357 348 339 330 319 302 280 262 254 249 242 238 235 234 233 232 232 232 231 229 228 226 223 223 224 223 223 223 222 221 219 218 217 216 218 218 217 217 217 217 217 217 217 218 219 220 221 220 220 220
159 125 177 227 158 144 222 264 232 152 255 251 228 254 274 292 286 288 343 339 337 356 339 305 303 327 349 15 32 15 8 19 17 20 22 21 27 21 19 25 22 16 13 9 8 12 16 15 5 355 348 340 329 311 289 272 260 251 246 242 239 236 235 234 234 234 232 230 229 228 227 227 227 226 225 224 223 221 221 219 218 219 218 218 217 217 216 216 216 216 217 218 219 220 220 220 220
131 171 218 223 86 119 170 264 318 189 245 250 240 259 275 292 283 307 4 330 333 357 345 347 352 354 10 21 26 22 21 26 23 23 21 20 28 24 21 23 20 17 14 10 9 14 22 25 19 10 4 359 352 338 316 295 277 264 257 251 246 242 240 239 238 237 236 234 232 230 229 229 229 228 227 226 224 222 222 222 221 221 220 219 218 217 217 216 216 216 217 218 219 219 219 219 220
141 209 242 109 182 235 186 173 214 236 248 249 222 245 259 252 259 287 316 306 320 344 338 2 11 13 22 20 20 23 23 23 21 21 17 14 23 24 22 21 19 18 15 13 14 20 26 26 23 19 15 12 9 359 341 318 297 282 272 264 256 251 247 245 243 242 240 237 236 234 232 231 230 230 229 227 225 223 222 222 221 222 222 221 220 219 218 217 216 216 216 216 217 217 218 218 218
65 317 318 52 190 225 214 186 192 239 251 258 229 230 243 236 259 292 302 297 330 354 6 21 23 26 29 25 21 19 17 18 16 17 16 15 22 26 25 22 20 19 14 13 19 24 26 24 21 20 17 15 13 7 358 340 321 303 287 276 268 261 255 252 249 246 243 241 240 238 237 235 233 231 230 228 226 225 223 222 221 221 222 222 221 220 219 218 217 217 216 216 216 216 216 217 217
142 221 249 238 203 246 279 239 161 221 252 265 254 241 246 255 279 295 316 10 20 19 32 45 41 34 30 27 25 18 13 13 11 12 15 21 27 28 27 24 22 19 17 18 20 21 22 21 18 16 15 14 11 7 3 354 342 325 305 291 281 272 264 258 254 250 247 245 244 243 241 240 237 234 231 229 227 226 224 223 222 221 221 221 221 220 220 219 218 218 217 216 216 215 215 215 215
180 197 203 212 219 249 280 260 203 198 228 235 254 259 248 232 258 286 359 50 45 29 40 57 50 35 28 25 21 17 16 11 7 9 12 15 18 18 18 19 18 18 18 19 19 19 18 18 16 14 12 11 9 7 4 1 355 344 326 310 297 285 274 266 260 255 252 249 247 246 244 242 239 236 233 231 228 226 225 224 223 222 220 219 220 220 220 219 219 218 217 216 215 214 214 213 213